Corpus Christi Naval Air Station,Truax Field Corpus Christi US
ICAO: KNGP
IATA: NGP
Category: Medium
Scheduled Services: No

Elevation: 18 ft
TransAlt. 18000 ft.

Airport Communications:
APP:120.9
ATIS:114
NAVY CORPUS CLNC DEL:31.43
DEP:125.4
NAVY CORPUS GND:118.7
AIR:38.18
BASE OPS:34.665
PMSV METRO:34.35
NAVY CORPUS TWR:134.85

KNGP Zoom In..

Runways:

(A) RW 04 length 5004 ft width 196 ft
---- / hdg 39

(B) RW 13L length 5000 ft width 196 ft
---- / hdg 129

(C) RW 13R length 8002 ft width 200 ft
ILS 111.30 / hdg 129

(D) RW 17 length 5003 ft width 196 ft
---- / hdg 173

(E) RW 22 length 5004 ft width 196 ft
---- / hdg 219

(F) RW 31L length 8002 ft width 200 ft
---- / hdg 309

(G) RW 31R length 5000 ft width 196 ft
---- / hdg 309

(H) RW 35 length 5003 ft width 196 ft
---- / hdg 353

Location; KNGP
Day. 14 / Time. 13.56 Zulu
* Altimeter: 29.96
* Temperature: 30° c. 86°f.
* Wind from: 170° Speed 13 kn.
Dewpoint: 26° c.
Visibility: 8 Statute Miles.
Clouds: Few 2500 ft.
Clouds: Scattered 25000 ft.

KNGP 141356Z 17013KT 8SM FEW025 SCT250 30/26 A2996 RMK AO2 SLP143 T03000261 $


Wind From 170°
Speed 13 kn.

 
 
jpsmedia.com for Web Design worldairports.se 2018   terms of use